When you browse on this site, cookies collect data to enhance your experience and personalize the content and advertising you see.
Visit our Privacy Policy to learn more. By continuing to use the site, you agree to this use of cookies and data.
  • In Belgien
  • Länderverzeichnis
  • Für 7 Tage
  • Wassertemperatur
  • Satellitenkarten
  • Wetterkarte
  • Widgets
  • user-avatar
    Anmelden

    Stündliche Wetter Ghanzi

    Heute, 17 Februar, Sonntag

    Zeit Temperatur Niederschläge Wind Luftdruck Luftfeuchtigkeit
    00:00 +10°C° 0 mm 3 m/S 720 mmHg 36%
    01:00 +9°C° 0 mm 3 m/S 720 mmHg 39%
    02:00 +9°C° 0 mm 3 m/S 720 mmHg 41%
    03:00 +8°C° 0 mm 3 m/S 720 mmHg 42%
    04:00 +8°C° 0 mm 3 m/S 720 mmHg 44%
    05:00 +8°C° 0 mm 3 m/S 720 mmHg 43%
    06:00 +8°C° 0 mm 3 m/S 720 mmHg 43%
    07:00 +9°C° 0 mm 3 m/S 721 mmHg 41%
    08:00 +11°C° 0 mm 3 m/S 721 mmHg 36%
    09:00 +13°C° 0 mm 3 m/S 721 mmHg 31%
    10:00 +16°C° 0 mm 3 m/S 721 mmHg 26%
    11:00 +18°C° 0 mm 2 m/S 721 mmHg 23%
    12:00 +19°C° 0 mm 2 m/S 720 mmHg 19%
    13:00 +20°C° 0 mm 2 m/S 720 mmHg 16%
    14:00 +20°C° 0 mm 2 m/S 720 mmHg 15%
    15:00 +21°C° 0 mm 3 m/S 720 mmHg 14%
    16:00 +21°C° 0 mm 3 m/S 719 mmHg 13%
    17:00 +19°C° 0 mm 3 m/S 719 mmHg 15%
    18:00 +17°C° 0 mm 3 m/S 719 mmHg 17%
    19:00 +16°C° 0 mm 3 m/S 719 mmHg 19%
    20:00 +14°C° 0 mm 3 m/S 720 mmHg 20%
    21:00 +13°C° 0 mm 4 m/S 720 mmHg 21%
    22:00 +13°C° 0 mm 4 m/S 720 mmHg 22%
    23:00 +12°C° 0 mm 4 m/S 720 mmHg 24%

    Morgen, 18 Februar, Montag

    Zeit Temperatur Niederschläge Wind Luftdruck Luftfeuchtigkeit
    00:00 +10°C° 0 mm 5 m/S 720 mmHg 27%
    01:00 +10°C° 0 mm 6 m/S 720 mmHg 29%
    02:00 +9°C° 0 mm 5 m/S 720 mmHg 33%
    03:00 +8°C° 0 mm 5 m/S 720 mmHg 37%
    04:00 +8°C° 0 mm 5 m/S 720 mmHg 41%
    05:00 +7°C° 0 mm 5 m/S 721 mmHg 43%
    06:00 +7°C° 0 mm 5 m/S 721 mmHg 45%
    07:00 +7°C° 0 mm 4 m/S 721 mmHg 47%
    08:00 +9°C° 0 mm 5 m/S 722 mmHg 42%
    09:00 +12°C° 0 mm 5 m/S 722 mmHg 37%
    10:00 +14°C° 0 mm 6 m/S 722 mmHg 32%
    11:00 +16°C° 0 mm 5 m/S 722 mmHg 27%
    12:00 +17°C° 0 mm 5 m/S 721 mmHg 23%
    13:00 +19°C° 0 mm 5 m/S 720 mmHg 19%
    14:00 +20°C° 0 mm 5 m/S 720 mmHg 18%
    15:00 +20°C° 0 mm 5 m/S 719 mmHg 17%
    16:00 +20°C° 0 mm 5 m/S 719 mmHg 16%
    17:00 +17°C° 0 mm 5 m/S 719 mmHg 19%
    18:00 +17°C° 0 mm 4 m/S 719 mmHg 22%
    19:00 +14°C° 0 mm 4 m/S 719 mmHg 25%
    20:00 +13°C° 0 mm 4 m/S 719 mmHg 26%
    21:00 +13°C° 0 mm 4 m/S 720 mmHg 28%
    22:00 +12°C° 0 mm 4 m/S 720 mmHg 29%
    23:00 +11°C° 0 mm 4 m/S 720 mmHg 30%

    übermorgen, 19 Februar, Dienstag

    Zeit Temperatur Niederschläge Wind Luftdruck Luftfeuchtigkeit
    00:00 +11°C° 0 mm 4 m/S 720 mmHg 32%
    01:00 +10°C° 0 mm 4 m/S 720 mmHg 33%
    02:00 +8°C° 0 mm 4 m/S 719 mmHg 35%
    03:00 +8°C° 0 mm 4 m/S 719 mmHg 36%
    04:00 +9°C° 0 mm 3 m/S 719 mmHg 38%
    05:00 +9°C° 0 mm 3 m/S 719 mmHg 38%
    06:00 +9°C° 0 mm 3 m/S 719 mmHg 38%
    07:00 +9°C° 0 mm 3 m/S 720 mmHg 38%
    08:00 +11°C° 0 mm 4 m/S 720 mmHg 32%
    09:00 +14°C° 0 mm 4 m/S 721 mmHg 26%
    10:00 +16°C° 0 mm 5 m/S 721 mmHg 20%
    11:00 +19°C° 0 mm 4 m/S 720 mmHg 17%
    12:00 +20°C° 0 mm 4 m/S 720 mmHg 15%
    13:00 +21°C° 0 mm 3 m/S 719 mmHg 13%
    14:00 +22°C° 0 mm 3 m/S 718 mmHg 12%
    15:00 +22°C° 0 mm 3 m/S 718 mmHg 12%
    16:00 +22°C° 0 mm 3 m/S 718 mmHg 11%
    17:00 +20°C° 0 mm 3 m/S 718 mmHg 13%
    18:00 +19°C° 0 mm 3 m/S 718 mmHg 14%
    19:00 +17°C° 0 mm 3 m/S 718 mmHg 16%
    20:00 +16°C° 0 mm 3 m/S 718 mmHg 17%
    21:00 +16°C° 0 mm 3 m/S 719 mmHg 18%
    22:00 +14°C° 0 mm 3 m/S 719 mmHg 19%
    23:00 +13°C° 0 mm 3 m/S 719 mmHg 20%

    20 Februar, Mittwoch

    Zeit Temperatur Niederschläge Wind Luftdruck Luftfeuchtigkeit
    00:00 +13°C° 0 mm 3 m/S 718 mmHg 21%
    01:00 +12°C° 0 mm 3 m/S 718 mmHg 21%
    02:00 +12°C° 0 mm 3 m/S 718 mmHg 22%
    03:00 +11°C° 0 mm 3 m/S 718 mmHg 23%
    04:00 +10°C° 0 mm 2 m/S 718 mmHg 23%
    05:00 +12°C° 0 mm 2 m/S 718 mmHg 24%
    06:00 +12°C° 0 mm 2 m/S 718 mmHg 24%
    07:00 +12°C° 0 mm 2 m/S 719 mmHg 24%
    08:00 +14°C° 0 mm 3 m/S 719 mmHg 21%
    09:00 +17°C° 0 mm 3 m/S 720 mmHg 18%
    10:00 +20°C° 0 mm 4 m/S 720 mmHg 16%
    11:00 +21°C° 0 mm 4 m/S 720 mmHg 14%
    12:00 +22°C° 0 mm 3 m/S 719 mmHg 12%
    13:00 +25°C° 0 mm 3 m/S 718 mmHg 10%
    14:00 +25°C° 0 mm 4 m/S 718 mmHg 10%
    15:00 +25°C° 0 mm 4 m/S 718 mmHg 10%
    16:00 +26°C° 0 mm 4 m/S 717 mmHg 9%
    17:00 +23°C° 0 mm 4 m/S 718 mmHg 10%
    18:00 +21°C° 0 mm 4 m/S 718 mmHg 12%
    19:00 +19°C° 0 mm 4 m/S 718 mmHg 13%
    20:00 +18°C° 0 mm 3 m/S 718 mmHg 14%
    21:00 +18°C° 0 mm 3 m/S 719 mmHg 15%
    22:00 +17°C° 0 mm 3 m/S 719 mmHg 16%
    23:00 +16°C° 0 mm 3 m/S 719 mmHg 16%

    21 Februar, Donnerstag

    Zeit Temperatur Niederschläge Wind Luftdruck Luftfeuchtigkeit
    00:00 +16°C° 0 mm 3 m/S 718 mmHg 17%
    01:00 +14°C° 0 mm 4 m/S 718 mmHg 18%
    02:00 +14°C° 0 mm 3 m/S 718 mmHg 19%
    03:00 +13°C° 0 mm 3 m/S 718 mmHg 20%
    04:00 +13°C° 0 mm 2 m/S 718 mmHg 21%
    05:00 +13°C° 0 mm 3 m/S 718 mmHg 20%
    06:00 +13°C° 0 mm 3 m/S 718 mmHg 19%
    07:00 +13°C° 0 mm 3 m/S 719 mmHg 18%
    08:00 +17°C° 0 mm 3 m/S 719 mmHg 16%
    09:00 +19°C° 0 mm 3 m/S 720 mmHg 14%
    10:00 +22°C° 0 mm 3 m/S 720 mmHg 11%
    11:00 +24°C° 0 mm 3 m/S 719 mmHg 10%
    12:00 +26°C° 0 mm 3 m/S 719 mmHg 9%
    13:00 +27°C° 0 mm 4 m/S 718 mmHg 8%
    14:00 +28°C° 0 mm 4 m/S 717 mmHg 7%
    15:00 +28°C° 0 mm 4 m/S 717 mmHg 7%
    16:00 +28°C° 0 mm 4 m/S 717 mmHg 7%
    17:00 +26°C° 0 mm 4 m/S 717 mmHg 8%
    18:00 +23°C° 0 mm 4 m/S 717 mmHg 9%
    19:00 +22°C° 0 mm 4 m/S 718 mmHg 10%
    20:00 +21°C° 0 mm 4 m/S 718 mmHg 11%
    21:00 +20°C° 0 mm 4 m/S 718 mmHg 11%
    22:00 +20°C° 0 mm 4 m/S 718 mmHg 12%
    23:00 +19°C° 0 mm 3 m/S 718 mmHg 13%

    22 Februar, Freitag

    Zeit Temperatur Niederschläge Wind Luftdruck Luftfeuchtigkeit
    00:00 +18°C° 0 mm 3 m/S 718 mmHg 13%
    01:00 +18°C° 0 mm 3 m/S 718 mmHg 14%
    02:00 +17°C° 0 mm 3 m/S 717 mmHg 15%
    03:00 +16°C° 0 mm 3 m/S 717 mmHg 16%
    04:00 +14°C° 0 mm 3 m/S 717 mmHg 17%
    05:00 +16°C° 0 mm 3 m/S 717 mmHg 18%
    06:00 +16°C° 0 mm 3 m/S 717 mmHg 18%
    07:00 +16°C° 0 mm 3 m/S 718 mmHg 19%
    08:00 +18°C° 0 mm 3 m/S 718 mmHg 17%
    09:00 +21°C° 0 mm 4 m/S 718 mmHg 14%
    10:00 +23°C° 0 mm 4 m/S 719 mmHg 12%
    11:00 +26°C° 0 mm 4 m/S 718 mmHg 11%
    12:00 +27°C° 0 mm 3 m/S 717 mmHg 9%
    13:00 +29°C° 0 mm 3 m/S 717 mmHg 8%
    14:00 +29°C° 0 mm 3 m/S 716 mmHg 8%
    15:00 +29°C° 0 mm 3 m/S 716 mmHg 7%
    16:00 +29°C° 0 mm 3 m/S 716 mmHg 7%
    17:00 +28°C° 0 mm 3 m/S 716 mmHg 8%
    18:00 +26°C° 0 mm 3 m/S 716 mmHg 9%
    19:00 +25°C° 0 mm 3 m/S 716 mmHg 9%
    20:00 +24°C° 0 mm 3 m/S 716 mmHg 10%
    21:00 +23°C° 0 mm 4 m/S 716 mmHg 10%
    22:00 +22°C° 0 mm 4 m/S 716 mmHg 10%
    23:00 +22°C° 0 mm 3 m/S 716 mmHg 11%
    Mehr zeigen